Regional Weather Roundup
Issued by NWS Charleston, SC

Current Version | Previous Version | Graphics & Text | Print | Product List | Glossary On
Versions: 1 2 3 4 5 6 7 8 9 10 11 12 13 14 15 16 17 18 19 20 21 22 23 24 25 26 27 28 29 30 31 32 33 34 35 36 37 38 39 40 41 42 43 44 45 46 47 48 49 50
000
ASUS42 KCHS 171027
RWRCHS

REGIONAL WEATHER ROUNDUP
NATIONAL WEATHER SERVICE CHARLESTON SC
600 AM EDT THU AUG 17 2017

NOTE: "FAIR" INDICATES FEW OR NO CLOUDS BELOW 12,000 FEET WITH NO
SIGNIFICANT WEATHER AND/OR OBSTRUCTIONS TO VISIBILITY.

NOT ALL STATIONS ARE QUALITY CONTROLLED. USE DATA WITH CAUTION...
ESPECIALLY DEWPOINT OBSERVATIONS.

SCZ027-030-031-034>040-042>050-171100-
...SOUTHEAST SOUTH CAROLINA...

CITY           SKY/WX    TMP DP  RH WIND       PRES   REMARKS
N CHARLESTON   PTCLDY    80  78  94 SW5       30.00S
WATERFRONT PRK   N/A    N/A N/A N/A VRB3      29.84S
JOHNS ISLAND   FAIR      81  79  94 CALM      30.01R
PINOPOLIS        N/A     81  79  94 VRB3      29.93S
MONCKS CORNER  FAIR      77  75  94 CALM      30.00S FOG
SUMMERVILLE    FAIR      77  77 100 CALM      30.01S
BEAUFORT MCAS  CLEAR     80  79  96 SW5       30.01R
BEAUFORT ARPT  FAIR      81  77  89 W5        30.01R
HILTON HEAD IS NOT AVBL
WALTERBORO     SUNNY     77  77 100 CALM      30.02R
ALLENDALE      NOT AVBL

...SOUTHERN MIDLANDS AND PEE DEE...

CITY           SKY/WX    TMP DP  RH WIND       PRES   REMARKS
GEORGETOWN     FAIR      75  73  94 CALM      30.01R
KINGSTREE      FAIR      73  72  94 CALM      30.00R FOG
ORANGEBURG     CLEAR     77  75  93 CALM      30.00S
BARNWELL       FAIR      79  77  94 CALM      30.02R
AIKEN          FAIR      73  73 100 CALM      30.06R
MANNING        FAIR      77  73  88 CALM      30.00S
COLUMBIA       CLEAR     78  73  84 W3        30.00R
SUMTER         CLEAR     77  75  94 CALM      29.98R
FLORENCE       CLEAR     75  75 100 CALM      30.00R
MYRTLE BEACH   CLEAR     81  77  89 CALM      30.00
N MYRTLE BEACH PTCLDY    78  78 100 CALM      29.99S FOG

$$

GAZ063-065-086>088-099>101-113>116-118-119-134>141-150-171100-
...SOUTHEAST GEORGIA...

CITY           SKY/WX    TMP DP  RH WIND       PRES   REMARKS
SAVANNAH ARPT  PTCLDY    80  77  90 SW3       30.02R
HUNTER AAF     CLEAR     79  76  92 CALM      29.99R
FORT STEWART   CLEAR     77  75  93 CALM      30.00R
STATESBORO     CLEAR     77  76  96 CALM      30.02R
SYLVANIA       SUNNY     76  76 100 CALM      30.03R
CLAXTON        FAIR      76  75  98 CALM      30.02S

...CSRA...CENTRAL AND FAR SOUTHEAST GEORGIA...

CITY           SKY/WX    TMP DP  RH WIND       PRES   REMARKS
THOMSON        CLEAR     76  74  93 CALM      30.08R
AUGUSTA-BUSH   CLEAR     77  75  93 CALM      30.00R
AUGUSTA-DANIEL CLEAR     82  72  71 CALM      30.02R
SWAINSBORO     FAIR      75  75 100 CALM      30.04R
VIDALIA        CLEAR     77  75  94 SW3       30.04R
EASTMAN        FAIR      76  76 100 CALM      30.06R FOG
HAZLEHURST     FAIR      78  72  82 CALM      30.03R
ALMA           CLEAR     76  74  93 CALM      30.03R
WAYCROSS       CLEAR     76  73  91 CALM      30.04R
JESUP          FAIR      77  73  88 CALM      30.04R
BAXLEY         FAIR      73  73 100 CALM      30.04R
BRUNSWICK      CLEAR     79  73  83 CALM      30.03S
SAINT SIMONS   CLEAR     81  77  88 W3        30.02R

$$

SCZ027-028-034-036>038-045-046-048>050-GAZ119-141-171100-
...LAKE AND SUPPLEMENTAL COASTAL OBSERVATIONS...

STATION/POSITION TIME  TEMP    WIND        PRES    WAVE   SWELL
                       AIR SEA DIR/SP/G            HT/PER HT/PER/DIR
                 (UTC) (F)     (DEG/KT/KT) (MB)    (FT/S) (FT/S/D)
WINYAH BAY       0945   79      30/  1     1016.0S
LAKE MURRAY      0920   81     300/  2/  3 1014.9
ACE BASIN NERRS  0945   79        CALM     1016.0S
FORT PULASKI     1000   82 86  260/  2/  4 1016.7
SAPELO ISLAND    1000   82        CALM     1016.0

$$

ANZ835-935-AMZ111-154-330-350-352-354-370-450-454-472-171100-
...C-MAN AND BUOY OBSERVATIONS...

STATION/POSITION TIME  TEMP    WIND        PRES    WAVE   SWELL
                       AIR SEA DIR/SP/G            HT/PER HT/PER/DIR
                 (UTC) (F)     (DEG/KT/KT) (MB)    (FT/S) (FT/S/D)
BUOY 41004       1010   84 84  250/  8/ 10 1015.6
BUOY 41008       0950   85 84  250/  6/  8 1016.1R   2/ 4   2/180/ 4
FOLLY BEACH CMAN 1000   83     250/  4/  5 1016.6R
CAPERS NEARSHORE 1008   82 85  270/ 10/ 14 1015.7R
FRIPP NEARSHORE  1008   84     270/  6/  8 1015.6R


STATION/POSITION TIME  TEMP    WIND        PRES    WAVE   SWELL
                       AIR SEA DIR/SP/G            HT/PER HT/PER/DIR
                 (UTC) (F)     (DEG/KT/KT) (MB)    (FT/S) (FT/S/D)
5E ST. MARYS GA  1000      83                N/A     1/ 8
FRYING PAN BUOY  1010   83 84  200/  6/  8 1015.9
BUOY 41025       0950   79 82  360/  8/ 10 1016.3R   2/ 8   2/110/ 8
CAPE LOOKOUT NC  1000   80      30/  3/  4 1016.4R
BUOY 41002       0950   83 84  280/  6/  8 1016.8R   3/ 6   3/260/ 6
BUOY 41010       1010   85 86  250/ 10/ 12 1017.6
ST AUGUSTINE FL  1000   79 80  240/  5/  6 1017.8R


$$




USA.gov is the U.S. government's official web portal to all federal, state and local government web resources and services.